Kuchera_Ratio
0.0 0.0 0.0 0.0 0.0 0.0 0.0 0.0 0.0 0.0 0.0 0.0 0.0 0.0 0.0 0.0 0.0 0.0 0.0 0.0 0.0 0.0 0.0 0.0 0.0 0.0 0.0 0.0 0.0 0.0 0.0 0.0 0.0 0.0 0.0 0.0 0.0 0.0 0.0 0.0 0.0 0.0 0.0
0.0 0.0 0.0 0.0 0.0 0.0 0.0 0.0 0.0 0.0 0.0 0.0 0.0 0.0 0.0 0.0 0.0 0.0 0.0 0.0 0.0 0.0 0.0 0.0 0.0 0.0 0.0 0.0 0.0 0.0 0.0 0.0 0.0 0.0 0.0 0.0 0.0 0.0 0.0 0.0 0.0 0.0 0.0
0.0 0.0 0.0 0.0 0.0 0.0 0.0 0.0 0.0 0.0 0.0 0.0 0.0 0.0 0.0 0.0 0.0 0.0 0.0 0.0 0.0 0.0 0.0 0.0 0.0 0.0 0.0 0.0 0.0 0.0 0.0 0.0 0.0 0.0 0.0 0.0 0.0 0.0 0.0 0.0 0.0 0.0 0.0
0.0 0.0 0.0 0.0 0.0 0.0 0.0 0.0 0.0 0.0 0.0 0.0 0.0 0.0 0.0 0.0 0.0 0.0 0.0 0.0 0.0 0.0 0.0 0.0 0.0 0.0 0.0 0.0 0.0 0.0 0.0 0.0 0.0 0.0 0.0 0.0 0.0 0.0 0.0 0.0 0.0 0.0 0.0
0.0 0.0 0.0 0.0 0.0 0.0 0.0 0.0 0.0 0.0 0.0 0.0 0.0 0.0 0.0 0.0 0.0 0.0 0.0 0.0 0.0 0.0 0.0 0.0 0.0 0.0 0.0 0.0 0.0 0.0 0.0 0.0 0.0 0.0 0.0 0.0 0.0 0.0 0.0 0.0 0.0 0.0 0.0
0.0 0.0 0.0 0.0 0.0 0.0 0.0 0.0 0.0 0.0 0.0 0.0 0.0 0.0 0.0 0.0 0.0 0.0 0.0 0.0 0.0 0.0 0.0 0.0 0.0 0.0 0.0 0.0 0.0 0.0 0.0 0.0 0.0 0.0 0.0 0.0 0.0 0.0 0.0 0.0 0.0 0.0 0.0
0.0 0.0 0.0 0.0 0.0 0.0 0.0 0.0 0.0 0.0 0.0 0.0 0.0 0.0 0.0 0.0 0.0 0.0 0.0 0.0 0.0 0.0 0.0 0.0 0.0 0.0 0.0 0.0 0.0 0.0 0.0 0.0 0.0 0.0 0.0 0.0 0.0 0.0 0.0 0.0 0.0 0.0 0.0
0.0 0.0 0.0 0.0 0.0 0.0 0.0 0.0 0.0 0.0 0.0 0.0 0.0 0.0 0.0 0.0 0.0 0.0 0.0 0.0 0.0 0.0 0.0 0.0 0.0 0.0 0.0 0.0 0.0 0.0 0.0 0.0 0.0 0.0 0.0 0.0 0.0 0.0 0.0 0.0 0.0 0.0 0.0
0.0 0.0 0.0 0.0 0.0 0.0 0.0 0.0 0.0 0.0 0.0 0.0 0.0 0.0 0.0 0.0 0.0 0.0 0.0 0.0 0.0 0.0 0.0 0.0 0.0 0.0 0.0 0.0 0.0 0.0 0.0 0.0 0.0 0.0 0.0 0.0 0.0 0.0 0.0 0.0 0.0 0.0 0.0
0.0 0.0 0.0 0.0 0.0 0.0 0.0 0.0 0.0 0.0 0.0 0.0 0.0 0.0 0.0 0.0 0.0 0.0 0.0 0.0 0.0 0.0 0.0 0.0 0.0 0.0 0.0 0.0 0.0 0.0 0.0 0.0 0.0 0.0 0.0 0.0 0.0 0.0 0.0 0.0 0.0 0.0 0.0
0.0 0.0 0.0 0.0 0.0 0.0 0.0 0.0 0.0 0.0 0.0 0.0 0.0 0.0 0.0 0.0 0.0 0.0 0.0 0.0 0.0 0.0 0.0 0.0 0.0 0.0 0.0 0.0 0.0 0.0 0.0 0.0 0.0 0.0 0.0 0.0 0.0 0.0 0.0 0.0 0.0 0.0 0.0
0.0 0.0 0.0 0.0 0.0 0.0 0.0 0.0 0.0 0.0 0.0 0.0 0.0 0.0 0.0 0.0 0.0 0.4 0.4 0.0 0.0 0.0 0.0 0.0 0.0 0.0 0.0 0.0 0.0 0.0 0.0 0.0 0.0 0.0 0.0 0.0 0.0 0.0 0.0 0.0 0.0 0.0 0.0
0.0 0.0 0.0 0.0 0.0 0.0 0.0 0.0 0.0 0.0 0.0 0.0 0.0 0.0 0.0 0.0 0.0 0.0 0.8 0.4 0.8 0.0 0.0 0.0 0.0 0.0 0.0 0.0 0.0 0.0 0.0 0.0 0.0 0.0 0.0 0.0 0.0 0.0 0.0 0.0 0.0 0.0 0.0
0.0 0.0 0.0 0.0 0.0 0.0 0.0 0.0 0.0 0.0 0.0 0.0 0.0 0.4 0.8 2.0 1.0 1.6 3.4 4.8 4.2 0.0 0.0 0.0 0.0 0.0 0.0 0.0 0.0 0.0 0.0 0.0 0.0 0.0 0.0 0.0 0.0 0.0 0.0 0.0 0.0 0.0 0.0
0.0 0.0 0.0 0.0 0.0 0.0 0.0 0.0 0.0 0.2 0.0 0.0 0.4 1.4 2.8 2.8 2.0 1.8 2.4 3.6 7.2 6.0 0.0 2.8 3.2 1.6 0.0 0.0 0.0 0.0 0.0 0.0 0.0 0.0 0.0 0.0 0.0 0.0 0.0 0.0 0.0 0.0 0.0
0.0 0.0 0.0 0.0 0.0 0.0 0.0 0.0 1.0 1.2 1.2 1.0 0.8 1.8 2.2 2.8 3.0 2.2 2.6 3.0 3.6 5.6 4.6 1.4 3.0 4.2 2.8 0.2 0.0 0.0 0.0 0.0 0.0 0.0 0.0 0.0 0.0 0.0 0.0 0.0 0.0 0.0 0.0
0.0 0.0 0.0 0.4 1.6 1.6 1.4 1.4 2.4 3.0 4.0 3.8 2.8 3.8 4.8 3.8 4.8 4.0 4.2 4.2 4.6 5.0 6.4 3.4 4.0 5.4 5.2 6.6 2.6 0.0 0.0 0.0 0.0 0.0 0.0 0.0 0.0 0.0 0.0 0.0 0.0 0.0 0.0
1.2 0.6 0.6 2.2 3.0 4.0 3.0 3.4 4.2 3.8 4.2 5.2 4.6 3.8 4.8 2.2 4.6 4.2 5.6 8.0 7.6 6.6 9.4 11.4 8.2 10.0 9.4 7.4 4.6 6.6 4.4 0.0 0.0 0.0 1.2 0.8 0.0 0.0 0.0 0.0 0.0 0.0 0.0
1.4 1.2 1.2 3.2 4.6 4.8 4.2 4.4 4.6 5.0 5.0 5.4 5.4 5.2 5.2 4.8 5.4 5.0 6.4 7.4 6.8 6.8 8.0 10.2 12.1 9.6 8.8 8.2 6.6 4.0 5.4 1.6 1.4 3.8 0.6 3.0 2.0 0.2 0.0 0.0 0.4 0.0 0.0
2.2 1.8 2.0 4.2 5.2 4.8 4.6 4.6 4.6 5.0 5.0 6.0 6.2 5.6 5.6 6.6 7.4 7.0 8.4 9.6 9.0 9.2 9.2 10.0 10.8 10.8 11.0 9.2 7.2 9.2 6.4 6.6 7.8 6.4 3.8 5.0 4.8 2.4 1.2 2.0 2.6 2.2 1.6
3.8 2.2 2.6 4.0 4.6 4.8 5.6 5.8 5.2 6.0 5.8 7.0 7.2 7.0 7.2 9.2 11.2 10.4 9.6 11.4 12.0 12.0 12.1 12.7 13.2 13.3 14.6 14.3 13.4 9.2 8.6 2.8 8.4 10.8 7.4 5.4 5.2 3.0 0.0 2.6 3.8 4.6 4.4
5.2 3.8 5.0 5.6 5.8 5.8 10.2 10.8 7.4 6.4 7.0 7.8 9.0 8.4 8.2 10.6 12.4 13.7 13.5 12.7 12.9 14.3 15.2 14.8 14.4 14.2 14.4 14.9 13.9 12.5 11.4 7.6 8.8 8.8 9.8 5.2 5.6 2.4 1.2 3.6 6.4 7.4 7.2
7.2 7.6 7.4 7.0 7.2 7.0 10.4 11.2 11.0 8.0 9.0 11.0 12.2 11.2 11.2 11.4 12.3 12.8 14.8 15.3 14.2 14.1 14.6 15.0 15.5 15.5 15.6 15.2 15.0 14.3 13.3 10.8 13.1 13.8 12.6 10.2 11.6 7.6 5.4 2.8 8.6 9.2 9.6
12.8 12.3 11.8 10.4 9.2 9.0 11.0 12.1 12.2 10.4 11.8 12.3 12.7 13.1 13.7 13.9 13.8 13.5 14.5 16.4 17.1 16.6 15.4 14.8 15.9 15.9 15.8 15.6 15.2 14.1 12.8 11.2 11.6 14.1 13.9 13.2 13.4 12.8 12.0 6.6 10.8 10.6 10.6
13.1 13.1 12.5 12.5 12.4 12.3 11.8 12.6 12.1 12.4 13.7 13.8 12.9 13.0 13.3 14.7 15.3 15.8 16.7 17.7 17.7 17.6 17.0 16.7 16.7 16.7 16.4 16.1 16.0 14.8 15.4 14.1 14.7 14.0 13.7 13.1 13.9 13.6 13.5 12.4 11.2 11.4 12.4
14.2 13.0 13.9 13.3 12.5 12.7 12.1 12.8 12.7 12.2 13.9 13.8 13.5 12.9 13.1 14.4 15.0 16.5 18.2 18.3 18.4 18.0 17.4 17.4 17.1 17.1 16.9 16.6 16.4 16.4 16.1 15.6 15.0 14.6 14.3 14.4 14.2 14.0 14.6 11.8 12.8 11.8 12.9